Location: Conflandey
(47.7287°N, 6.0456°E)
Time: 21:22:58
(UTC+00:00)

Tiangong - Pass Details

Date: 24 October 2021
Orbit: 380 x 384 km, 41.5° (Epoch: 05 December)

Event Time Altitude Azimuth Distance (km) Brightness Sun altitude
Rises 18:22:02 0° 259° (W) 2,274 6.4 -19.3°
Reaches altitude 10° 18:24:21 10° 244° (WSW) 1,416 4.8 -19.7°
Enters shadow 18:26:58 23° 189° (S) 869 2.9 -20.1°
